Simultaneous Nadir Overpasses (SNOs) Predictions

Prediction of SNOs between NOAA-19 and NPP Satellite Orbit:

Table of predicted SNOs for the next 14.0 days since TLE Epoch: 6/2/2013
Index Date (NOAA-19) Time (NOAA-19) Lat,Lon (NOAA-19) SZA (NOAA-19 ) Date (NPP) Time (NPP) Lat,Lon (NPP) SZA (NPP ) Distance(km) Time Diff (sec)
1 06/14/2013 07:13:31 -80.92,-160.89 118.60 06/14/2013 07:14:29 -80.92,-160.80 118.65 1.65 58
2 06/14/2013 08:04:31 80.90, 6.83 61.33 06/14/2013 08:05:13 80.90, 6.83 61.31 0.17 42
3 06/14/2013 08:55:34 -80.90, 174.15 118.69 06/14/2013 08:55:58 -80.90, 174.15 118.70 0.18 24
4 06/14/2013 09:46:34 80.88, -18.13 61.24 06/14/2013 09:46:42 80.89, -18.23 61.25 1.77 8
5 06/14/2013 10:37:36 -80.86, 149.55 118.83 06/14/2013 10:37:26 -80.87, 149.45 118.81 1.84 10
6 06/14/2013
